| time (UTC) | temp F | wind direction | speed MPH | gust MPH | rain 1hr in | rain 24hr in | rain mn in | humidity % | barometer mb |
| 20260906154057 | 74 | 185 | 2.0 | 2.0 | 0.00 | 0.00 | 0.00 | 70 | 1020.1 |
| 20260906153556 | 74 | 148 | 1.0 | 2.0 | 0.00 | 0.00 | 0.00 | 72 | 1020.1 |
| 20260906153051 | 74 | 355 | 0.0 | 1.0 | 0.00 | 0.00 | 0.00 | 72 | 1019.7 |
| 20260906152551 | 74 | 52 | 0.0 | 3.0 | 0.00 | 0.00 | 0.00 | 75 | 1019.6 |
| 20260906152050 | 73 | 125 | 0.0 | 0.0 | 0.00 | 0.00 | 0.00 | 77 | 1019.8 |
| 20260906151546 | 73 | 115 | 1.0 | 2.0 | 0.00 | 0.00 | 0.00 | 80 | 1019.9 |
| 20260906151042 | 72 | 216 | 0.0 | 1.0 | 0.00 | 0.00 | 0.00 | 84 | 1020.0 |
| 20260906150537 | 72 | 272 | 1.0 | 3.0 | 0.00 | 0.00 | 0.00 | 84 | 1019.9 |
| 20260906150032 | 72 | 150 | 0.0 | 2.0 | 0.00 | 0.00 | 0.00 | 83 | 1019.9 |
| 20260906145531 | 72 | 29 | 0.0 | 2.0 | 0.00 | 0.00 | 0.00 | 84 | 1020.0 |
| 20260906145026 | 72 | 268 | 0.0 | 1.0 | 0.00 | 0.00 | 0.00 | 84 | 1019.9 |
| 20260906144520 | 72 | 162 | 2.0 | 3.0 | 0.00 | 0.00 | 0.00 | 84 | 1019.9 |
| 20260906144016 | 71 | 148 | 1.0 | 3.0 | 0.00 | 0.00 | 0.00 | 84 | 1019.8 |
| 20260906143510 | 71 | 18 | 0.0 | 1.0 | 0.00 | 0.00 | 0.00 | 88 | 1019.7 |
| 20260906143008 | 70 | 24 | 0.0 | 2.0 | 0.00 | 0.00 | 0.00 | 88 | 1019.6 |
| 20260906142506 | 70 | 168 | 0.0 | 3.0 | 0.00 | 0.00 | 0.00 | 90 | 1019.6 |
| 20260906141956 | 69 | 133 | 1.0 | 1.0 | 0.00 | 0.00 | 0.00 | 91 | 1019.7 |
| 20260906141455 | 69 | 133 | 0.0 | 1.0 | 0.00 | 0.00 | 0.00 | 92 | 1019.8 |
| 20260906140950 | 69 | 72 | 0.0 | 1.0 | 0.00 | 0.00 | 0.00 | 94 | 1019.9 |
| 20260906140445 | 69 | 357 | 0.0 | 1.0 | 0.00 | 0.00 | 0.00 | 94 | 1019.8 |
| 20260906135943 | 68 | 269 | 1.0 | 1.0 | 0.00 | 0.00 | 0.00 | 95 | 1019.7 |
| 20260906135442 | 68 | 269 | 0.0 | 0.0 | 0.00 | 0.00 | 0.00 | 96 | 1019.9 |
| 20260906134938 | 68 | 269 | 0.0 | 0.0 | 0.00 | 0.00 | 0.00 | 96 | 1019.9 |
| 20260906134433 | 68 | 269 | 0.0 | 2.0 | 0.00 | 0.00 | 0.00 | 97 | 1019.6 |
| 20260906133933 | 68 | 269 | 0.0 | 1.0 | 0.00 | 0.00 | 0.00 | 98 | 1019.5 |
| 20260906133429 | 67 | 282 | 0.0 | 1.0 | 0.00 | 0.00 | 0.00 | 99 | 1019.5 |
| 20260906132924 | 67 | 282 | 1.0 | 1.0 | 0.00 | 0.00 | 0.00 | 99 | 1019.3 |
| 20260906132419 | 67 | 282 | 0.0 | 1.0 | 0.00 | 0.00 | 0.00 | 99 | 1019.6 |
| 20260906131915 | 66 | 282 | 1.0 | 2.0 | 0.00 | 0.00 | 0.00 | 99 | 1019.4 |
| 20260906131410 | 66 | 303 | 0.0 | 1.0 | 0.00 | 0.00 | 0.00 | 99 | 1019.4 |
| 20260906130906 | 66 | 82 | 0.0 | 0.0 | 0.00 | 0.00 | 0.00 | 99 | 1019.4 |
| 20260906130405 | 66 | 140 | 0.0 | 1.0 | 0.00 | 0.00 | 0.00 | 99 | 1019.1 |
| 20260906125904 | 66 | 357 | 0.0 | 1.0 | 0.00 | 0.00 | 0.00 | 99 | 1019.3 |
| 20260906125401 | 65 | 357 | 0.0 | 1.0 | 0.00 | 0.00 | 0.00 | 99 | 1019.6 |
| 20260906124856 | 65 | 357 | 0.0 | 0.0 | 0.00 | 0.00 | 0.00 | 99 | 1019.5 |
| 20260906124352 | 65 | 357 | 0.0 | 0.0 | 0.00 | 0.00 | 0.00 | 99 | 1019.5 |
| 20260906123851 | 64 | 357 | 0.0 | 0.0 | 0.00 | 0.00 | 0.00 | 99 | 1019.6 |
| 20260906123346 | 64 | 357 | 0.0 | 0.0 | 0.00 | 0.00 | 0.00 | 99 | 1019.7 |
| 20260906122846 | 64 | 357 | 0.0 | 0.0 | 0.00 | 0.00 | 0.00 | 99 | 1019.6 |
| 20260906122341 | 64 | 357 | 0.0 | 1.0 | 0.00 | 0.00 | 0.00 | 99 | 1019.5 |
| 20260906121838 | 64 | 357 | 0.0 | 0.0 | 0.00 | 0.00 | 0.00 | 99 | 1019.4 |
| 20260906121334 | 64 | 357 | 0.0 | 1.0 | 0.00 | 0.00 | 0.00 | 99 | 1019.5 |
| 20260906120830 | 64 | 357 | 0.0 | 0.0 | 0.00 | 0.00 | 0.00 | 99 | 1019.3 |
| 20260906120325 | 64 | 357 | 0.0 | 0.0 | 0.00 | 0.00 | 0.00 | 99 | 1019.3 |
| 20260906115821 | 64 | 357 | 0.0 | 0.0 | 0.00 | 0.00 | 0.00 | 99 | 1019.3 |
| 20260906115316 | 64 | 357 | 0.0 | 0.0 | 0.00 | 0.00 | 0.00 | 99 | 1019.3 |
| 20260906114816 | 64 | 357 | 0.0 | 0.0 | 0.00 | 0.00 | 0.00 | 99 | 1019.0 |
| 20260906114312 | 64 | 357 | 0.0 | 1.0 | 0.00 | 0.00 | 0.00 | 99 | 1019.0 |
| 20260906113812 | 64 | 357 | 1.0 | 1.0 | 0.00 | 0.00 | 0.00 | 99 | 1019.2 |
| 20260906113311 | 64 | 357 | 0.0 | 0.0 | 0.00 | 0.00 | 0.00 | 99 | 1019.0 |
| 20260906112806 | 64 | 357 | 0.0 | 0.0 | 0.00 | 0.00 | 0.00 | 99 | 1019.1 |
| 20260906112257 | 64 | 357 | 0.0 | 0.0 | 0.00 | 0.00 | 0.00 | 99 | 1019.0 |
| 20260906111757 | 64 | 357 | 0.0 | 0.0 | 0.00 | 0.00 | 0.00 | 99 | 1018.7 |
| 20260906111256 | 64 | 357 | 0.0 | 0.0 | 0.00 | 0.00 | 0.00 | 99 | 1018.6 |
| 20260906110752 | 64 | 357 | 0.0 | 0.0 | 0.00 | 0.00 | 0.00 | 99 | 1018.6 |
| 20260906110247 | 64 | 357 | 0.0 | 1.0 | 0.00 | 0.00 | 0.00 | 99 | 1018.7 |
| 20260906105745 | 64 | 357 | 0.0 | 0.0 | 0.00 | 0.00 | 0.00 | 99 | 1018.8 |
| 20260906105241 | 64 | 357 | 0.0 | 0.0 | 0.00 | 0.00 | 0.00 | 99 | 1018.8 |
| 20260906104736 | 64 | 357 | 1.0 | 1.0 | 0.00 | 0.00 | 0.00 | 99 | 1018.7 |
| 20260906104235 | 65 | 357 | 0.0 | 0.0 | 0.00 | 0.00 | 0.00 | 99 | 1018.8 |
| 20260906103734 | 65 | 357 | 0.0 | 0.0 | 0.00 | 0.00 | 0.00 | 99 | 1018.7 |
| 20260906103233 | 65 | 357 | 0.0 | 0.0 | 0.00 | 0.00 | 0.00 | 99 | 1018.6 |
| 20260906102730 | 65 | 357 | 0.0 | 0.0 | 0.00 | 0.00 | 0.00 | 99 | 1018.6 |
| 20260906102229 | 65 | 357 | 0.0 | 0.0 | 0.00 | 0.00 | 0.00 | 99 | 1018.4 |
| 20260906101724 | 65 | 357 | 0.0 | 0.0 | 0.00 | 0.00 | 0.00 | 99 | 1018.4 |
| 20260906101219 | 64 | 357 | 0.0 | 0.0 | 0.00 | 0.00 | 0.00 | 99 | 1018.2 |
| 20260906100715 | 65 | 357 | 0.0 | 0.0 | 0.00 | 0.00 | 0.00 | 99 | 1018.3 |
| 20260906100215 | 65 | 356 | 0.0 | 0.0 | 0.00 | 0.00 | 0.00 | 99 | 1018.2 |
| 20260906095714 | 65 | 356 | 0.0 | 0.0 | 0.00 | 0.00 | 0.00 | 99 | 1018.4 |
| 20260906095210 | 65 | 356 | 0.0 | 0.0 | 0.00 | 0.00 | 0.00 | 99 | 1018.3 |
| 20260906094708 | 65 | 356 | 0.0 | 0.0 | 0.00 | 0.00 | 0.00 | 99 | 1018.3 |
| 20260906094204 | 65 | 356 | 0.0 | 0.0 | 0.00 | 0.00 | 0.00 | 99 | 1018.2 |
| 20260906093701 | 65 | 356 | 0.0 | 1.0 | 0.00 | 0.00 | 0.00 | 99 | 1018.4 |
| 20260906093155 | 65 | 356 | 0.0 | 0.0 | 0.00 | 0.00 | 0.00 | 99 | 1018.4 |
| 20260906092651 | 65 | 356 | 0.0 | 1.0 | 0.00 | 0.00 | 0.00 | 99 | 1018.7 |
| 20260906092145 | 65 | 356 | 0.0 | 0.0 | 0.00 | 0.00 | 0.00 | 99 | 1018.4 |
| 20260906091641 | 65 | 356 | 0.0 | 0.0 | 0.00 | 0.00 | 0.00 | 99 | 1018.4 |
| 20260906091137 | 65 | 356 | 0.0 | 0.0 | 0.00 | 0.00 | 0.00 | 99 | 1018.2 |
| 20260906090632 | 65 | 356 | 0.0 | 1.0 | 0.00 | 0.00 | 0.00 | 99 | 1018.0 |
| 20260906090132 | 65 | 356 | 1.0 | 1.0 | 0.00 | 0.00 | 0.00 | 99 | 1018.0 |
| 20260906085632 | 65 | 356 | 0.0 | 0.0 | 0.00 | 0.00 | 0.00 | 99 | 1018.2 |
| 20260906085132 | 66 | 356 | 0.0 | 0.0 | 0.00 | 0.00 | 0.00 | 99 | 1018.1 |
| 20260906084632 | 66 | 356 | 0.0 | 0.0 | 0.00 | 0.00 | 0.00 | 99 | 1018.1 |
| 20260906084130 | 66 | 356 | 0.0 | 0.0 | 0.00 | 0.00 | 0.00 | 99 | 1018.2 |
| 20260906083626 | 66 | 356 | 0.0 | 0.0 | 0.00 | 0.00 | 0.00 | 99 | 1018.2 |
| 20260906083121 | 66 | 356 | 0.0 | 0.0 | 0.00 | 0.00 | 0.00 | 99 | 1018.2 |
| 20260906082616 | 66 | 356 | 0.0 | 0.0 | 0.00 | 0.00 | 0.00 | 99 | 1018.1 |
| 20260906082112 | 66 | 356 | 0.0 | 0.0 | 0.00 | 0.00 | 0.00 | 99 | 1018.0 |
| 20260906081608 | 66 | 356 | 0.0 | 0.0 | 0.00 | 0.00 | 0.00 | 99 | 1018.0 |
| 20260906081103 | 66 | 356 | 0.0 | 1.0 | 0.00 | 0.00 | 0.00 | 99 | 1018.1 |
| 20260906080559 | 66 | 356 | 0.0 | 0.0 | 0.00 | 0.00 | 0.00 | 99 | 1018.0 |
| 20260906080055 | 66 | 356 | 1.0 | 1.0 | 0.00 | 0.00 | 0.00 | 99 | 1018.2 |
| 20260906075555 | 66 | 356 | 0.0 | 0.0 | 0.00 | 0.00 | 0.00 | 99 | 1018.0 |
| 20260906075050 | 66 | 356 | 0.0 | 1.0 | 0.00 | 0.00 | 0.00 | 99 | 1018.2 |
| 20260906074545 | 66 | 356 | 0.0 | 0.0 | 0.00 | 0.00 | 0.00 | 99 | 1018.1 |
| 20260906074043 | 65 | 356 | 0.0 | 0.0 | 0.00 | 0.00 | 0.00 | 99 | 1017.8 |
| 20260906073539 | 65 | 356 | 0.0 | 0.0 | 0.00 | 0.00 | 0.00 | 99 | 1017.9 |
| 20260906073035 | 65 | 356 | 0.0 | 1.0 | 0.00 | 0.00 | 0.00 | 99 | 1018.1 |
| 20260906072535 | 65 | 356 | 0.0 | 1.0 | 0.00 | 0.00 | 0.00 | 99 | 1018.2 |
| 20260906072031 | 65 | 356 | 0.0 | 0.0 | 0.00 | 0.00 | 0.00 | 99 | 1018.2 |
| 20260906071527 | 65 | 356 | 0.0 | 0.0 | 0.00 | 0.00 | 0.00 | 99 | 1018.4 |
| 20260906071022 | 65 | 356 | 0.0 | 0.0 | 0.00 | 0.00 | 0.00 | 99 | 1018.2 |
| 20260906070518 | 65 | 356 | 0.0 | 0.0 | 0.00 | 0.00 | 0.00 | 99 | 1018.3 |
| 20260906070014 | 65 | 356 | 0.0 | 0.0 | 0.00 | 0.00 | 0.00 | 99 | 1018.3 |
| 20260906065513 | 65 | 356 | 0.0 | 0.0 | 0.00 | 0.00 | 0.00 | 99 | 1018.4 |
| 20260906065009 | 65 | 356 | 0.0 | 1.0 | 0.00 | 0.00 | 0.00 | 99 | 1018.3 |
| 20260906064505 | 65 | 356 | 0.0 | 0.0 | 0.00 | 0.00 | 0.00 | 99 | 1018.3 |
| 20260906063959 | 65 | 356 | 0.0 | 0.0 | 0.00 | 0.00 | 0.00 | 99 | 1018.4 |
| 20260906063455 | 65 | 356 | 0.0 | 0.0 | 0.00 | 0.00 | 0.00 | 99 | 1018.3 |
| 20260906062955 | 65 | 356 | 0.0 | 0.0 | 0.00 | 0.00 | 0.00 | 99 | 1018.1 |
| 20260906062445 | 65 | 356 | 0.0 | 1.0 | 0.00 | 0.00 | 0.00 | 98 | 1018.4 |
| 20260906061940 | 65 | 356 | 0.0 | 0.0 | 0.00 | 0.00 | 0.00 | 98 | 1018.3 |
| 20260906061436 | 65 | 356 | 0.0 | 0.0 | 0.00 | 0.00 | 0.00 | 98 | 1018.3 |
| 20260906060935 | 65 | 356 | 0.0 | 0.0 | 0.00 | 0.00 | 0.00 | 98 | 1018.3 |
| 20260906060433 | 65 | 356 | 0.0 | 0.0 | 0.00 | 0.00 | 0.00 | 98 | 1018.3 |
| 20260906055929 | 65 | 356 | 0.0 | 0.0 | 0.00 | 0.00 | 0.00 | 98 | 1018.3 |
| 20260906055424 | 66 | 356 | 0.0 | 0.0 | 0.00 | 0.00 | 0.00 | 98 | 1018.2 |
| 20260906054920 | 66 | 356 | 0.0 | 0.0 | 0.00 | 0.00 | 0.00 | 98 | 1018.3 |
| 20260906054414 | 66 | 356 | 0.0 | 0.0 | 0.00 | 0.00 | 0.00 | 97 | 1018.4 |
| 20260906053910 | 66 | 356 | 0.0 | 0.0 | 0.00 | 0.00 | 0.00 | 97 | 1018.4 |
| 20260906053406 | 66 | 356 | 0.0 | 0.0 | 0.00 | 0.00 | 0.00 | 97 | 1018.5 |
| 20260906052902 | 66 | 356 | 0.0 | 0.0 | 0.00 | 0.00 | 0.00 | 97 | 1018.7 |
| 20260906052358 | 66 | 356 | 0.0 | 0.0 | 0.00 | 0.00 | 0.00 | 97 | 1018.6 |
| 20260906051855 | 66 | 356 | 0.0 | 0.0 | 0.00 | 0.00 | 0.00 | 97 | 1018.6 |
| 20260906051354 | 66 | 356 | 0.0 | 0.0 | 0.00 | 0.00 | 0.00 | 98 | 1018.4 |
| 20260906050850 | 66 | 356 | 0.0 | 0.0 | 0.00 | 0.00 | 0.00 | 98 | 1018.4 |
| 20260906050345 | 66 | 356 | 0.0 | 0.0 | 0.00 | 0.00 | 0.00 | 98 | 1018.5 |
| 20260906045844 | 66 | 356 | 0.0 | 0.0 | 0.00 | 0.00 | 0.00 | 97 | 1018.5 |
| 20260906045338 | 66 | 356 | 0.0 | 0.0 | 0.00 | 0.00 | 0.00 | 97 | 1018.4 |
| 20260906044835 | 66 | 356 | 0.0 | 0.0 | 0.00 | 0.00 | 0.00 | 97 | 1018.4 |
| 20260906044334 | 66 | 356 | 0.0 | 0.0 | 0.00 | 0.00 | 0.00 | 97 | 1018.5 |
| 20260906043830 | 66 | 356 | 0.0 | 0.0 | 0.00 | 0.00 | 0.00 | 97 | 1018.5 |
| 20260906043326 | 66 | 356 | 0.0 | 0.0 | 0.00 | 0.00 | 0.00 | 97 | 1018.2 |
| 20260906042827 | 66 | 356 | 0.0 | 1.0 | 0.00 | 0.00 | 0.00 | 97 | 1018.4 |
| 20260906042325 | 66 | 356 | 0.0 | 0.0 | 0.00 | 0.00 | 0.00 | 97 | 1018.2 |
| 20260906041821 | 67 | 356 | 1.0 | 1.0 | 0.00 | 0.00 | 0.00 | 97 | 1018.1 |
| 20260906041316 | 67 | 356 | 0.0 | 1.0 | 0.00 | 0.00 | 0.00 | 96 | 1018.5 |
| 20260906040811 | 67 | 356 | 0.0 | 1.0 | 0.00 | 0.00 | 0.00 | 96 | 1018.6 |
| 20260906040307 | 67 | 356 | 0.0 | 0.0 | 0.00 | 0.00 | 0.00 | 96 | 1018.3 |
| 20260906035802 | 67 | 356 | 0.0 | 0.0 | 0.00 | 0.00 | 0.00 | 96 | 1018.2 |
| 20260906035257 | 67 | 356 | 0.0 | 0.0 | 0.00 | 0.00 | 0.00 | 96 | 1018.3 |
| 20260906034758 | 67 | 356 | 0.0 | 0.0 | 0.00 | 0.00 | 0.00 | 95 | 1018.5 |
| 20260906034258 | 67 | 356 | 0.0 | 0.0 | 0.00 | 0.00 | 0.00 | 95 | 1018.4 |
| 20260906033754 | 67 | 356 | 0.0 | 0.0 | 0.00 | 0.00 | 0.00 | 95 | 1018.4 |
| 20260906033253 | 67 | 356 | 0.0 | 0.0 | 0.00 | 0.00 | 0.00 | 95 | 1018.4 |
| 20260906032750 | 68 | 356 | 0.0 | 0.0 | 0.00 | 0.00 | 0.00 | 95 | 1018.4 |
| 20260906032249 | 68 | 356 | 0.0 | 0.0 | 0.00 | 0.00 | 0.00 | 94 | 1018.4 |
| 20260906031745 | 68 | 356 | 0.0 | 0.0 | 0.00 | 0.00 | 0.00 | 94 | 1018.5 |
| 20260906031241 | 68 | 356 | 0.0 | 0.0 | 0.00 | 0.00 | 0.00 | 94 | 1018.6 |
| 20260906030740 | 68 | 356 | 0.0 | 0.0 | 0.00 | 0.00 | 0.00 | 94 | 1018.4 |
| 20260906030236 | 68 | 356 | 0.0 | 0.0 | 0.00 | 0.00 | 0.00 | 94 | 1018.7 |
| 20260906025735 | 68 | 356 | 0.0 | 0.0 | 0.00 | 0.00 | 0.00 | 94 | 1018.6 |
| 20260906025229 | 68 | 356 | 0.0 | 0.0 | 0.00 | 0.00 | 0.00 | 94 | 1018.3 |
| 20260906024728 | 68 | 356 | 0.0 | 0.0 | 0.00 | 0.00 | 0.00 | 94 | 1018.3 |
| 20260906024227 | 68 | 356 | 0.0 | 0.0 | 0.00 | 0.00 | 0.00 | 94 | 1018.4 |
| 20260906023724 | 67 | 356 | 0.0 | 1.0 | 0.00 | 0.00 | 0.00 | 94 | 1018.2 |
| 20260906023219 | 67 | 357 | 0.0 | 0.0 | 0.00 | 0.00 | 0.00 | 94 | 1018.0 |
| 20260906022714 | 67 | 357 | 0.0 | 0.0 | 0.00 | 0.00 | 0.00 | 94 | 1017.8 |
| 20260906022209 | 67 | 357 | 0.0 | 0.0 | 0.00 | 0.00 | 0.00 | 94 | 1017.5 |
| 20260906021706 | 67 | 357 | 0.0 | 0.0 | 0.00 | 0.00 | 0.00 | 93 | 1017.2 |
| 20260906021204 | 68 | 357 | 0.0 | 0.0 | 0.00 | 0.00 | 0.00 | 93 | 1017.0 |
| 20260906020659 | 68 | 357 | 0.0 | 0.0 | 0.00 | 0.00 | 0.00 | 91 | 1017.0 |
| 20260906020154 | 69 | 357 | 0.0 | 0.0 | 0.00 | 0.00 | 0.00 | 91 | 1016.8 |
| 20260906015654 | 69 | 357 | 0.0 | 1.0 | 0.00 | 0.00 | 0.00 | 90 | 1016.8 |
| 20260906015153 | 69 | 357 | 0.0 | 0.0 | 0.00 | 0.00 | 0.00 | 89 | 1016.7 |
| 20260906014652 | 69 | 357 | 0.0 | 0.0 | 0.00 | 0.00 | 0.00 | 90 | 1016.8 |
| 20260906014149 | 69 | 357 | 0.0 | 0.0 | 0.00 | 0.00 | 0.00 | 89 | 1016.0 |
| 20260906013644 | 69 | 357 | 0.0 | 0.0 | 0.00 | 0.00 | 0.00 | 89 | 1016.3 |
| 20260906013140 | 70 | 357 | 0.0 | 0.0 | 0.00 | 0.00 | 0.00 | 89 | 1016.2 |
| 20260906012640 | 70 | 357 | 0.0 | 0.0 | 0.00 | 0.00 | 0.00 | 88 | 1015.9 |
| 20260906012139 | 70 | 357 | 0.0 | 0.0 | 0.00 | 0.00 | 0.00 | 88 | 1015.9 |
| 20260906011636 | 70 | 357 | 0.0 | 0.0 | 0.00 | 0.00 | 0.00 | 88 | 1015.8 |
| 20260906011130 | 71 | 357 | 0.0 | 0.0 | 0.00 | 0.00 | 0.00 | 87 | 1015.7 |
| 20260906010626 | 71 | 357 | 0.0 | 0.0 | 0.00 | 0.00 | 0.00 | 87 | 1015.9 |
| 20260906010122 | 71 | 357 | 0.0 | 0.0 | 0.00 | 0.00 | 0.00 | 86 | 1015.9 |
| 20260906005621 | 71 | 357 | 0.0 | 0.0 | 0.00 | 0.00 | 0.00 | 86 | 1015.6 |
| 20260906005121 | 72 | 357 | 0.0 | 0.0 | 0.00 | 0.00 | 0.00 | 85 | 1015.9 |
| 20260906004620 | 72 | 357 | 0.0 | 0.0 | 0.00 | 0.00 | 0.00 | 85 | 1015.7 |
| 20260906004115 | 72 | 357 | 0.0 | 0.0 | 0.00 | 0.00 | 0.00 | 84 | 1015.7 |
| 20260906003610 | 73 | 357 | 0.0 | 0.0 | 0.00 | 0.00 | 0.00 | 84 | 1015.5 |
| 20260906003107 | 73 | 357 | 0.0 | 0.0 | 0.00 | 0.00 | 0.00 | 83 | 1015.7 |
| 20260906002607 | 74 | 357 | 1.0 | 1.0 | 0.00 | 0.00 | 0.00 | 82 | 1015.6 |
| 20260906002101 | 74 | 357 | 0.0 | 0.0 | 0.00 | 0.00 | 0.00 | 81 | 1015.6 |
| 20260906001557 | 75 | 357 | 0.0 | 0.0 | 0.00 | 0.00 | 0.00 | 80 | 1016.0 |
| 20260906001057 | 75 | 357 | 0.0 | 0.0 | 0.00 | 0.00 | 0.00 | 79 | 1016.0 |
| 20260906000553 | 75 | 357 | 0.0 | 0.0 | 0.00 | 0.00 | 0.00 | 79 | 1016.2 |
| 20260906000048 | 76 | 357 | 1.0 | 1.0 | 0.00 | 0.00 | 0.00 | 78 | 1016.2 |
| 20260905235547 | 76 | 357 | 0.0 | 0.0 | 0.00 | 0.00 | 0.00 | 78 | 1016.2 |
| 20260905235042 | 77 | 357 | 0.0 | 1.0 | 0.00 | 0.00 | 0.00 | 78 | 1016.2 |
| 20260905234537 | 77 | 357 | 0.0 | 0.0 | 0.00 | 0.00 | 0.00 | 76 | 1016.2 |
| 20260905234032 | 77 | 357 | 0.0 | 2.0 | 0.00 | 0.00 | 0.00 | 75 | 1016.2 |
| 20260905233527 | 77 | 25 | 0.0 | 1.0 | 0.00 | 0.00 | 0.00 | 75 | 1016.4 |
| 20260905233027 | 78 | 24 | 0.0 | 2.0 | 0.00 | 0.00 | 0.00 | 74 | 1016.2 |
| 20260905232522 | 78 | 352 | 0.0 | 1.0 | 0.00 | 0.00 | 0.00 | 74 | 1016.4 |
| 20260905232018 | 78 | 352 | 1.0 | 1.0 | 0.00 | 0.00 | 0.00 | 74 | 1016.3 |
| 20260905231513 | 78 | 333 | 0.0 | 0.0 | 0.00 | 0.00 | 0.00 | 74 | 1016.6 |
| 20260905231009 | 79 | 333 | 0.0 | 1.0 | 0.00 | 0.00 | 0.00 | 73 | 1016.5 |
| 20260905230508 | 79 | 110 | 1.0 | 1.0 | 0.00 | 0.00 | 0.00 | 72 | 1016.6 |
| 20260905230007 | 80 | 111 | 0.0 | 1.0 | 0.00 | 0.00 | 0.00 | 71 | 1016.5 |
| 20260905225502 | 80 | 110 | 0.0 | 2.0 | 0.00 | 0.00 | 0.00 | 71 | 1016.3 |
| 20260905224957 | 80 | 87 | 0.0 | 1.0 | 0.00 | 0.00 | 0.00 | 71 | 1016.4 |
| 20260905224452 | 80 | 85 | 0.0 | 1.0 | 0.00 | 0.00 | 0.00 | 72 | 1016.3 |
| 20260905223951 | 80 | 86 | 0.0 | 0.0 | 0.00 | 0.00 | 0.00 | 72 | 1016.4 |
| 20260905223449 | 80 | 73 | 0.0 | 1.0 | 0.00 | 0.00 | 0.00 | 70 | 1016.3 |
| 20260905222944 | 80 | 132 | 0.0 | 0.0 | 0.00 | 0.00 | 0.00 | 68 | 1016.2 |
| 20260905222444 | 81 | 132 | 1.0 | 1.0 | 0.00 | 0.00 | 0.00 | 68 | 1016.3 |
| 20260905221939 | 81 | 132 | 0.0 | 0.0 | 0.00 | 0.00 | 0.00 | 68 | 1016.3 |
| 20260905221436 | 81 | 53 | 1.0 | 1.0 | 0.00 | 0.00 | 0.00 | 67 | 1016.2 |
| 20260905220932 | 82 | 66 | 0.0 | 1.0 | 0.00 | 0.00 | 0.00 | 66 | 1016.3 |
| 20260905220427 | 82 | 209 | 1.0 | 1.0 | 0.00 | 0.00 | 0.00 | 65 | 1016.2 |
| 20260905215927 | 83 | 208 | 0.0 | 1.0 | 0.00 | 0.00 | 0.00 | 64 | 1016.2 |
| 20260905215422 | 83 | 209 | 0.0 | 1.0 | 0.00 | 0.00 | 0.00 | 62 | 1016.2 |
| 20260905214919 | 84 | 210 | 0.0 | 1.0 | 0.00 | 0.00 | 0.00 | 59 | 1016.4 |
| 20260905214414 | 85 | 210 | 1.0 | 2.0 | 0.00 | 0.00 | 0.00 | 58 | 1016.3 |
| 20260905213914 | 84 | 90 | 1.0 | 1.0 | 0.00 | 0.00 | 0.00 | 59 | 1016.5 |
| 20260905213410 | 83 | 91 | 0.0 | 1.0 | 0.00 | 0.00 | 0.00 | 61 | 1016.7 |
| 20260905212905 | 83 | 91 | 1.0 | 1.0 | 0.00 | 0.00 | 0.00 | 62 | 1016.7 |
| 20260905212400 | 84 | 22 | 1.0 | 1.0 | 0.00 | 0.00 | 0.00 | 61 | 1016.6 |
| 20260905211859 | 85 | 21 | 1.0 | 1.0 | 0.00 | 0.00 | 0.00 | 60 | 1016.8 |
| 20260905211355 | 87 | 30 | 0.0 | 2.0 | 0.00 | 0.00 | 0.00 | 58 | 1016.8 |
| 20260905210851 | 87 | 62 | 0.0 | 1.0 | 0.00 | 0.00 | 0.00 | 58 | 1016.8 |
| 20260905210351 | 85 | 322 | 0.0 | 0.0 | 0.00 | 0.00 | 0.00 | 59 | 1017.0 |
| 20260905205850 | 85 | 316 | 1.0 | 2.0 | 0.00 | 0.00 | 0.00 | 60 | 1017.0 |
| 20260905205345 | 85 | 327 | 0.0 | 1.0 | 0.00 | 0.00 | 0.00 | 60 | 1017.1 |
| 20260905204844 | 84 | 233 | 0.0 | 0.0 | 0.00 | 0.00 | 0.00 | 60 | 1016.9 |
| 20260905204341 | 84 | 78 | 1.0 | 2.0 | 0.00 | 0.00 | 0.00 | 60 | 1017.2 |
| 20260905203839 | 84 | 173 | 0.0 | 1.0 | 0.00 | 0.00 | 0.00 | 61 | 1017.1 |
| 20260905203335 | 84 | 280 | 0.0 | 1.0 | 0.00 | 0.00 | 0.00 | 61 | 1017.3 |
| 20260905202830 | 85 | 280 | 0.0 | 1.0 | 0.00 | 0.00 | 0.00 | 58 | 1017.2 |
| 20260905202325 | 84 | 254 | 1.0 | 1.0 | 0.00 | 0.00 | 0.00 | 60 | 1017.2 |
| 20260905201821 | 84 | 254 | 1.0 | 2.0 | 0.00 | 0.00 | 0.00 | 62 | 1017.3 |
| 20260905201317 | 83 | 270 | 0.0 | 1.0 | 0.00 | 0.00 | 0.00 | 65 | 1017.3 |
| 20260905200816 | 83 | 269 | 0.0 | 1.0 | 0.00 | 0.00 | 0.00 | 64 | 1017.4 |
| 20260905200312 | 82 | 270 | 0.0 | 1.0 | 0.00 | 0.00 | 0.00 | 65 | 1017.6 |
| 20260905195810 | 81 | 294 | 1.0 | 2.0 | 0.00 | 0.00 | 0.00 | 65 | 1017.5 |
| 20260905195307 | 83 | 280 | 1.0 | 1.0 | 0.00 | 0.00 | 0.00 | 63 | 1017.5 |
| 20260905194801 | 83 | 260 | 1.0 | 2.0 | 0.00 | 0.00 | 0.00 | 62 | 1017.4 |
| 20260905194301 | 81 | 100 | 1.0 | 1.0 | 0.00 | 0.00 | 0.00 | 64 | 1017.7 |
| 20260905193800 | 79 | 184 | 0.0 | 1.0 | 0.00 | 0.00 | 0.00 | 68 | 1017.5 |
| 20260905193255 | 80 | 180 | 0.0 | 1.0 | 0.00 | 0.00 | 0.00 | 68 | 1017.6 |
| 20260905192750 | 80 | 182 | 1.0 | 1.0 | 0.00 | 0.00 | 0.00 | 70 | 1017.5 |
| 20260905192247 | 80 | 237 | 1.0 | 2.0 | 0.00 | 0.00 | 0.00 | 70 | 1017.4 |
| 20260905191746 | 79 | 236 | 0.0 | 1.0 | 0.00 | 0.00 | 0.00 | 71 | 1017.5 |
| 20260905191244 | 79 | 286 | 0.0 | 0.0 | 0.00 | 0.00 | 0.00 | 71 | 1017.5 |
| 20260905190743 | 79 | 286 | 0.0 | 1.0 | 0.00 | 0.00 | 0.00 | 70 | 1017.5 |
| 20260905190242 | 78 | 259 | 1.0 | 1.0 | 0.00 | 0.00 | 0.00 | 72 | 1017.5 |
| 20260905185736 | 78 | 274 | 0.0 | 1.0 | 0.00 | 0.00 | 0.00 | 73 | 1017.3 |
| 20260905185231 | 78 | 245 | 1.0 | 1.0 | 0.00 | 0.00 | 0.00 | 73 | 1017.4 |
| 20260905184731 | 78 | 245 | 0.0 | 1.0 | 0.00 | 0.00 | 0.00 | 73 | 1017.4 |
| 20260905184230 | 78 | 216 | 0.0 | 1.0 | 0.00 | 0.00 | 0.00 | 74 | 1017.2 |
| 20260905183729 | 77 | 216 | 0.0 | 1.0 | 0.00 | 0.00 | 0.00 | 74 | 1017.3 |
| 20260905183225 | 77 | 216 | 1.0 | 1.0 | 0.00 | 0.00 | 0.00 | 76 | 1017.3 |
| 20260905182724 | 77 | 202 | 1.0 | 1.0 | 0.00 | 0.00 | 0.00 | 76 | 1017.5 |
| 20260905182224 | 76 | 202 | 0.0 | 1.0 | 0.00 | 0.00 | 0.00 | 76 | 1017.5 |
| 20260905181719 | 76 | 257 | 1.0 | 2.0 | 0.00 | 0.00 | 0.00 | 77 | 1017.4 |
| 20260905181218 | 76 | 177 | 1.0 | 1.0 | 0.00 | 0.00 | 0.00 | 77 | 1017.6 |
| 20260905180713 | 76 | 177 | 1.0 | 1.0 | 0.00 | 0.00 | 0.00 | 78 | 1017.7 |
| 20260905180209 | 76 | 263 | 0.0 | 1.0 | 0.00 | 0.00 | 0.00 | 78 | 1017.7 |
| 20260905175708 | 75 | 263 | 0.0 | 0.0 | 0.00 | 0.00 | 0.00 | 79 | 1017.8 |
| 20260905175203 | 75 | 290 | 1.0 | 1.0 | 0.00 | 0.00 | 0.00 | 80 | 1018.0 |
| 20260905174659 | 75 | 290 | 1.0 | 1.0 | 0.00 | 0.00 | 0.00 | 80 | 1018.1 |
| 20260905174154 | 75 | 257 | 0.0 | 1.0 | 0.00 | 0.00 | 0.00 | 80 | 1018.0 |
| 20260905173650 | 74 | 257 | 0.0 | 1.0 | 0.00 | 0.00 | 0.00 | 81 | 1018.1 |
| 20260905173145 | 74 | 257 | 0.0 | 0.0 | 0.00 | 0.00 | 0.00 | 83 | 1018.2 |
| 20260905172644 | 74 | 257 | 1.0 | 1.0 | 0.00 | 0.00 | 0.00 | 82 | 1018.2 |
| 20260905172139 | 74 | 256 | 1.0 | 1.0 | 0.00 | 0.00 | 0.00 | 83 | 1018.3 |
| 20260905171635 | 74 | 256 | 0.0 | 1.0 | 0.00 | 0.00 | 0.00 | 84 | 1018.4 |
| 20260905171131 | 73 | 256 | 0.0 | 1.0 | 0.00 | 0.00 | 0.00 | 84 | 1018.2 |
| 20260905170627 | 73 | 344 | 0.0 | 1.0 | 0.00 | 0.00 | 0.00 | 83 | 1018.2 |
| 20260905170123 | 73 | 345 | 0.0 | 0.0 | 0.00 | 0.00 | 0.00 | 84 | 1018.2 |
| 20260905165617 | 73 | 345 | 0.0 | 0.0 | 0.00 | 0.00 | 0.00 | 83 | 1018.1 |
| 20260905165113 | 73 | 344 | 0.0 | 0.0 | 0.00 | 0.00 | 0.00 | 84 | 1018.2 |
| 20260905164608 | 73 | 257 | 0.0 | 1.0 | 0.00 | 0.00 | 0.00 | 84 | 1018.0 |
| 20260905164107 | 73 | 258 | 0.0 | 1.0 | 0.00 | 0.00 | 0.00 | 84 | 1018.2 |
| 20260905163603 | 72 | 355 | 0.0 | 1.0 | 0.00 | 0.00 | 0.00 | 85 | 1018.4 |
| 20260905163059 | 72 | 355 | 0.0 | 0.0 | 0.00 | 0.00 | 0.00 | 86 | 1018.3 |
| 20260905162555 | 72 | 355 | 0.0 | 0.0 | 0.00 | 0.00 | 0.00 | 86 | 1018.1 |
| 20260905162055 | 71 | 351 | 0.0 | 0.0 | 0.00 | 0.00 | 0.00 | 87 | 1018.3 |
| 20260905161555 | 71 | 351 | 0.0 | 0.0 | 0.00 | 0.00 | 0.00 | 87 | 1018.1 |
| 20260905161053 | 71 | 351 | 0.0 | 0.0 | 0.00 | 0.00 | 0.00 | 87 | 1018.2 |
| 20260905160552 | 71 | 351 | 0.0 | 0.0 | 0.00 | 0.00 | 0.00 | 89 | 1018.3 |
| 20260905160051 | 71 | 351 | 0.0 | 0.0 | 0.00 | 0.00 | 0.00 | 89 | 1018.3 |
| 20260905155551 | 70 | 351 | 0.0 | 0.0 | 0.00 | 0.00 | 0.00 | 90 | 1018.3 |
| 20260905155050 | 70 | 28 | 0.0 | 0.0 | 0.00 | 0.00 | 0.00 | 90 | 1018.2 |
| 20260905154545 | 70 | 15 | 0.0 | 1.0 | 0.00 | 0.00 | 0.00 | 91 | 1018.3 |